Terug naar catalogus

SL-14 R/B

ActiefPO
NORAD 23318·ROCKET BODY·🇷🇺 Russia

Gelanceerd Oct 11, 1994 vanaf Plesetsk Cosmodrome

Loading…

Volgende Passages (komende 24 uur)

TLE

VersSource: Space-Track

Epoch: Sep 14, 2026, 02:16 UTC

1 23318U 94066B   26257.09464200  .00000242  00000-0  28194-4 0  9995
2 23318  82.5370 274.9509 0022098 337.2361  22.7870 14.81006535721500

Volg SL-14 R/B in realtime met AllMySat

Download on the App Store